Total_Precipitation_Accumulation
0.00 0.03 0.17 0.45 0.99 1.32 1.23 0.70 0.52 0.41 0.42 0.43 0.45 0.43 0.44 0.49 0.72 1.01 0.62 0.33 0.11 0.03 0.03 0.11 0.22 0.22 0.18 0.16 0.15 0.17 0.16 0.15 0.14 0.11 0.10 0.08 0.08 0.07 0.08 0.08 0.08 0.09 0.11 0.14 0.16 0.18 0.15 0.17 0.19
0.02 0.07 0.26 0.63 1.20 1.35 1.07 0.58 0.43 0.35 0.38 0.39 0.35 0.40 0.51 0.57 0.44 0.43 0.43 0.33 0.12 0.04 0.02 0.05 0.14 0.21 0.20 0.18 0.17 0.17 0.16 0.14 0.12 0.11 0.09 0.08 0.08 0.08 0.09 0.10 0.10 0.12 0.13 0.15 0.17 0.15 0.15 0.18 0.19
0.03 0.09 0.27 0.59 0.77 0.86 0.73 0.47 0.38 0.31 0.42 0.57 0.49 0.41 0.52 0.66 0.49 0.39 0.35 0.20 0.11 0.08 0.05 0.08 0.13 0.16 0.19 0.19 0.19 0.17 0.15 0.13 0.11 0.10 0.09 0.09 0.09 0.12 0.12 0.12 0.13 0.14 0.15 0.16 0.17 0.15 0.17 0.14 0.15
0.04 0.13 0.28 0.40 0.31 0.33 0.37 0.37 0.35 0.39 0.61 0.77 0.64 0.51 0.55 0.51 0.48 0.40 0.30 0.20 0.15 0.11 0.10 0.12 0.16 0.17 0.18 0.18 0.18 0.17 0.15 0.13 0.12 0.11 0.11 0.11 0.13 0.15 0.14 0.14 0.16 0.15 0.16 0.19 0.21 0.17 0.16 0.15 0.15
0.04 0.13 0.32 0.29 0.17 0.19 0.21 0.26 0.40 0.47 0.71 0.80 0.60 0.60 0.66 0.56 0.55 0.51 0.37 0.31 0.28 0.28 0.23 0.23 0.25 0.23 0.21 0.19 0.19 0.19 0.17 0.15 0.13 0.12 0.13 0.14 0.16 0.19 0.19 0.19 0.21 0.18 0.18 0.22 0.25 0.22 0.18 0.19 0.22
0.03 0.08 0.19 0.16 0.11 0.10 0.14 0.22 0.36 0.50 0.69 0.77 0.62 0.79 0.81 0.78 0.73 0.69 0.66 0.67 0.61 0.63 0.56 0.45 0.44 0.36 0.29 0.25 0.24 0.23 0.22 0.19 0.18 0.17 0.17 0.18 0.19 0.21 0.23 0.25 0.25 0.25 0.26 0.27 0.27 0.24 0.25 0.29 0.33
0.01 0.03 0.07 0.07 0.05 0.08 0.14 0.22 0.40 0.55 0.70 0.91 0.87 0.95 0.91 1.01 0.97 0.88 0.89 0.93 0.95 0.90 0.85 0.63 0.49 0.44 0.38 0.38 0.34 0.30 0.27 0.26 0.24 0.24 0.22 0.21 0.21 0.21 0.23 0.28 0.28 0.28 0.30 0.32 0.32 0.31 0.33 0.36 0.37
0.00 0.01 0.03 0.02 0.02 0.05 0.12 0.23 0.37 0.53 0.77 0.90 0.89 0.96 0.90 0.91 1.00 1.05 1.08 1.17 1.36 1.19 1.01 0.74 0.58 0.55 0.47 0.42 0.39 0.35 0.30 0.28 0.27 0.29 0.30 0.30 0.28 0.27 0.31 0.33 0.35 0.36 0.35 0.35 0.38 0.40 0.42 0.44 0.42
0.00 0.01 0.02 0.02 0.01 0.03 0.12 0.28 0.43 0.46 0.59 0.88 1.14 0.98 0.81 0.88 1.15 1.27 1.42 1.40 1.63 1.53 1.07 0.70 0.70 0.70 0.61 0.53 0.49 0.54 0.48 0.45 0.46 0.51 0.50 0.56 0.69 0.68 0.71 0.59 0.58 0.58 0.62 0.64 0.65 0.68 0.70 0.67 0.54
0.00 0.00 0.01 0.01 0.01 0.03 0.14 0.34 0.50 0.59 0.79 1.09 1.37 1.21 0.98 0.94 1.32 1.57 1.54 1.34 1.34 1.49 1.38 0.93 0.80 0.80 0.73 0.67 0.68 0.95 0.97 0.98 1.03 1.11 1.05 1.14 1.12 0.96 0.76 0.76 0.93 0.94 1.08 1.20 1.33 1.43 1.25 1.01 0.86
0.00 0.00 0.00 0.01 0.01 0.05 0.17 0.20 0.28 0.53 1.05 1.43 1.69 1.34 1.08 1.11 1.40 1.80 1.78 1.53 1.39 1.46 1.36 1.27 1.04 0.95 0.93 1.01 0.96 1.09 1.22 1.34 1.43 1.37 1.40 1.52 1.32 1.09 0.97 1.09 1.34 1.40 1.51 1.63 1.90 2.04 1.51 1.48 1.70
0.00 0.00 0.00 0.01 0.01 0.03 0.10 0.18 0.33 0.62 1.07 1.35 1.27 1.12 1.11 1.26 1.43 1.91 2.12 1.85 1.66 1.60 1.51 1.65 1.49 1.35 1.34 1.31 1.33 1.17 1.13 1.20 1.34 1.40 1.40 1.55 1.47 1.34 1.36 1.40 1.45 1.65 1.82 2.05 2.02 2.15 2.14 2.19 2.11
0.00 0.00 0.00 0.00 0.01 0.03 0.08 0.18 0.29 0.52 0.80 0.87 0.77 0.94 1.33 1.38 1.58 2.04 2.52 2.39 2.17 1.98 1.95 2.01 1.95 2.02 1.96 1.77 1.61 1.29 1.21 1.15 1.18 1.25 1.26 1.49 1.71 1.68 1.75 1.55 1.50 1.36 1.66 2.02 2.23 2.28 2.46 2.59 2.55
0.00 0.01 0.01 0.02 0.03 0.04 0.07 0.14 0.31 0.69 0.71 0.66 0.77 1.02 1.35 1.68 1.73 2.07 2.65 2.74 2.60 2.55 2.59 2.49 2.39 2.42 2.34 2.01 1.76 1.56 1.33 1.28 1.22 1.23 1.37 1.78 1.95 1.84 1.88 1.81 1.71 1.47 1.61 1.95 2.29 2.36 2.61 2.60 2.64
0.01 0.03 0.08 0.09 0.07 0.08 0.11 0.32 0.56 0.74 0.72 0.72 0.91 1.08 1.47 1.97 2.11 2.31 2.70 2.88 2.99 3.18 3.23 3.26 3.12 2.84 2.75 2.44 2.00 1.69 1.42 1.25 1.28 1.41 1.59 1.85 1.98 2.06 2.21 2.11 1.77 1.62 1.79 1.96 1.98 2.10 2.57 2.42 2.38
0.02 0.06 0.23 0.17 0.09 0.09 0.17 0.55 0.75 0.78 0.80 0.85 1.00 1.28 1.62 2.02 2.06 2.21 2.53 2.95 3.30 3.71 3.99 4.02 3.72 3.52 3.33 2.88 2.47 2.14 1.94 1.74 1.72 1.71 1.65 1.57 1.74 1.89 2.04 1.77 1.43 1.59 1.85 1.98 1.91 1.90 2.26 2.32 2.34
0.05 0.09 0.18 0.18 0.12 0.11 0.20 0.57 0.61 0.51 0.80 1.11 1.28 1.47 1.61 1.78 1.88 2.08 2.37 2.87 3.38 3.94 4.46 4.66 4.67 4.22 3.73 3.08 2.59 2.21 2.14 2.01 1.86 1.69 1.49 1.31 1.22 1.23 1.33 1.17 1.10 1.30 1.54 1.56 1.38 1.51 1.78 1.89 2.02
0.04 0.08 0.14 0.19 0.16 0.15 0.27 0.51 0.64 0.54 0.76 1.01 1.10 1.41 1.52 1.51 1.71 2.07 2.54 2.88 3.48 4.03 4.51 4.75 4.81 4.27 3.53 3.03 2.80 2.49 2.18 1.99 1.79 1.52 1.27 1.02 0.94 0.88 0.95 0.95 0.89 0.95 1.00 1.03 1.17 1.35 1.49 1.40 1.49
0.03 0.07 0.15 0.17 0.16 0.23 0.37 0.62 0.74 0.71 0.72 0.76 0.89 1.11 1.16 1.23 1.49 1.92 2.52 3.05 3.61 4.40 4.86 4.89 4.49 3.65 3.05 2.55 2.30 2.07 1.84 1.67 1.44 1.19 1.00 0.86 0.82 0.75 0.77 0.73 0.74 0.79 0.75 0.76 0.91 1.03 1.05 0.89 1.07
0.05 0.09 0.17 0.16 0.12 0.14 0.34 0.65 0.73 0.77 0.82 0.75 0.80 0.91 0.86 0.98 1.32 1.92 2.64 3.30 3.66 4.03 4.24 4.16 3.64 2.84 2.31 2.00 1.86 1.66 1.51 1.24 1.09 0.91 0.81 0.73 0.69 0.65 0.63 0.63 0.61 0.59 0.62 0.64 0.68 0.79 0.80 0.72 0.85
0.08 0.09 0.14 0.17 0.13 0.15 0.34 0.75 0.87 0.83 0.81 0.75 0.63 0.65 0.76 0.96 1.52 2.25 3.01 3.54 3.60 3.46 3.13 2.77 2.47 2.05 1.86 1.76 1.58 1.37 1.29 1.10 0.90 0.67 0.56 0.53 0.49 0.46 0.44 0.41 0.42 0.44 0.47 0.50 0.56 0.63 0.67 0.63 0.59
0.09 0.07 0.05 0.07 0.11 0.32 0.45 0.86 0.93 0.92 0.86 0.67 0.60 0.67 0.82 1.08 1.64 2.33 2.84 2.91 2.88 2.62 2.20 1.96 1.85 1.71 1.58 1.48 1.37 1.12 0.92 0.83 0.69 0.59 0.51 0.45 0.38 0.37 0.34 0.31 0.31 0.31 0.32 0.40 0.40 0.48 0.59 0.61 0.50
0.05 0.04 0.04 0.08 0.18 0.34 0.47 0.74 0.96 0.92 0.96 0.57 0.45 0.55 0.68 0.92 1.21 1.42 1.58 1.59 1.63 1.53 1.58 1.63 1.63 1.62 1.52 1.42 1.30 1.15 0.91 0.80 0.74 0.72 0.64 0.57 0.46 0.39 0.35 0.34 0.31 0.30 0.28 0.29 0.32 0.40 0.51 0.57 0.52
0.04 0.06 0.12 0.21 0.36 0.70 0.69 0.79 1.06 1.00 0.83 0.43 0.26 0.33 0.53 0.65 0.69 0.73 0.74 0.79 0.96 0.96 1.05 1.16 1.19 1.29 1.37 1.33 1.15 1.03 0.89 0.81 0.76 0.69 0.57 0.50 0.43 0.38 0.36 0.36 0.38 0.35 0.32 0.31 0.30 0.32 0.38 0.50 0.59
0.05 0.09 0.31 0.63 0.97 1.03 0.61 0.69 1.04 0.95 0.62 0.32 0.20 0.17 0.23 0.38 0.49 0.58 0.63 0.70 0.81 0.70 0.71 0.82 0.88 0.89 0.96 0.96 0.89 0.86 0.86 0.79 0.70 0.60 0.51 0.43 0.33 0.31 0.31 0.31 0.34 0.36 0.37 0.36 0.35 0.34 0.33 0.41 0.51
0.06 0.07 0.18 0.34 0.43 0.57 0.59 1.05 1.21 0.64 0.34 0.20 0.14 0.11 0.15 0.24 0.35 0.39 0.43 0.51 0.58 0.49 0.49 0.60 0.68 0.67 0.67 0.67 0.67 0.67 0.73 0.64 0.58 0.59 0.51 0.43 0.36 0.31 0.30 0.29 0.29 0.31 0.35 0.39 0.42 0.38 0.38 0.41 0.43
0.06 0.05 0.07 0.09 0.16 0.40 0.74 1.04 0.91 0.45 0.29 0.15 0.11 0.11 0.12 0.16 0.21 0.24 0.24 0.28 0.35 0.37 0.39 0.45 0.54 0.56 0.52 0.53 0.54 0.53 0.60 0.61 0.57 0.55 0.49 0.43 0.46 0.38 0.34 0.31 0.32 0.33 0.36 0.39 0.42 0.40 0.40 0.43 0.43
0.06 0.06 0.07 0.10 0.18 0.36 0.64 0.99 1.02 0.58 0.33 0.18 0.14 0.15 0.14 0.14 0.16 0.14 0.14 0.16 0.21 0.27 0.36 0.42 0.48 0.51 0.48 0.48 0.48 0.42 0.48 0.57 0.63 0.58 0.50 0.49 0.50 0.42 0.39 0.37 0.36 0.38 0.38 0.38 0.41 0.41 0.46 0.50 0.54
0.09 0.08 0.10 0.10 0.11 0.21 0.48 0.68 0.49 0.37 0.29 0.24 0.20 0.16 0.13 0.14 0.16 0.13 0.09 0.10 0.14 0.20 0.28 0.33 0.42 0.50 0.50 0.49 0.55 0.56 0.52 0.49 0.56 0.59 0.60 0.61 0.61 0.51 0.47 0.46 0.46 0.45 0.45 0.47 0.52 0.53 0.56 0.63 0.72
0.11 0.11 0.12 0.13 0.12 0.12 0.24 0.35 0.30 0.36 0.38 0.30 0.22 0.19 0.13 0.12 0.13 0.10 0.09 0.10 0.14 0.17 0.22 0.28 0.34 0.45 0.47 0.49 0.55 0.59 0.61 0.53 0.54 0.58 0.61 0.63 0.69 0.70 0.65 0.60 0.56 0.48 0.46 0.51 0.58 0.65 0.62 0.64 0.70